Weather History for KHLC - January, 2012

Change the Weather History Date:

Sunday, January 1, 2012

  Actual Average Record
Temperature  
Mean Temperature 35 °F 29 °F  
Max Temperature 45 °F 41 °F 72 °F (1939)
Min Temperature 25 °F 16 °F -16 °F (1974)
Degree Days  
Heating Degree Days 30    
Moisture  
Dew Point 20 °F    
Average Humidity 58    
Maximum Humidity 75    
Minimum Humidity 33    
Precipitation  
Precipitation 0.00 in 0.01 in 0.02 in (2014)
Month to date precipitation 0.00 0.01  
Year to date precipitation 0.00 0.01  
Sea Level Pressure  
Sea Level Pressure 30.57 in    
Wind  
Wind Speed 14 mph (NW)    
Max Wind Speed 22 mph    
Max Gust Speed 31 mph    
Visibility 10 miles    
Events      
T = Trace of Precipitation, MM = Missing Value Source: NWS Daily Summary

Daily Weather History Graph

Daily Weather History Graph

Search for Another Location

Airport or City:

Trip Planner

Search our weather history database for the weather conditions in past years. The results will help you decide how hot, cold, wet, or windy it might be!

Date:

Astronomy

Jan. 01, 2012 Rise Set
Actual Time 7:59 AM CST 5:26 PM CST
Civil Twilight 7:29 AM CST 5:56 PM CST
Nautical Twilight 6:55 AM CST 6:30 PM CST
Astronomical Twilight 6:22 AM CST 7:02 PM CST
Moon 12:14 PM CST (1/1) 12:57 AM CST (1/1)
Length of Visible Light 10h 27m
Length of Day
9h 27m
First Quarter, 55% of the Moon is Illuminated
Jan 1
First Quarter
Jan 9
Full
Jan 16
Last Quarter
Jan 23
New
Jan 30
First Quarter

Hourly Weather History & Observations

Time (CST) Temp. Windchill Dew Point Humidity Pressure Visibility Wind Dir Wind Speed Gust Speed Precip Events Conditions
12:53 AM 34.0 °F 22.1 °F 24.1 °F 67% 30.29 in 10.0 mi NW 21.9 mph 29.9 mph N/A   Clear
1:53 AM 34.0 °F 22.7 °F 23.0 °F 64% 30.34 in 10.0 mi NW 19.6 mph 31.1 mph N/A   Clear
2:53 AM 33.1 °F 24.4 °F 23.0 °F 66% 30.40 in 10.0 mi WNW 11.5 mph - N/A   Clear
3:53 AM 30.9 °F 22.2 °F 21.9 °F 69% 30.40 in 10.0 mi WNW 10.4 mph - N/A   Clear
4:53 AM 28.9 °F 20.4 °F 21.0 °F 72% 30.43 in 10.0 mi WNW 9.2 mph - N/A   Clear
5:53 AM 28.9 °F 19.2 °F 21.0 °F 72% 30.46 in 10.0 mi NW 11.5 mph - N/A   Clear
6:53 AM 27.0 °F 18.7 °F 19.9 °F 75% 30.48 in 10.0 mi NW 8.1 mph - N/A   Clear
7:53 AM 26.1 °F 15.6 °F 19.0 °F 75% 30.54 in 10.0 mi NW 11.5 mph - N/A   Clear
8:53 AM 28.9 °F 19.2 °F 19.9 °F 69% 30.58 in 10.0 mi WNW 11.5 mph - N/A   Clear
9:53 AM 34.0 °F 27.2 °F 21.9 °F 61% 30.61 in 10.0 mi WNW 8.1 mph - N/A   Clear
10:53 AM 37.9 °F 30.0 °F 21.9 °F 53% 30.64 in 10.0 mi WNW 12.7 mph - N/A   Clear
11:53 AM 41.0 °F 33.5 °F 23.0 °F 49% 30.63 in 10.0 mi NW 13.8 mph 19.6 mph N/A   Clear
12:53 PM 44.1 °F 37.7 °F 21.9 °F 42% 30.61 in 10.0 mi NW 12.7 mph - N/A   Clear
1:53 PM 45.0 °F 37.9 °F 18.0 °F 34% 30.59 in 10.0 mi NW 16.1 mph - N/A   Clear
3:53 PM 45.0 °F 37.6 °F 17.1 °F 33% 30.60 in 10.0 mi NW 17.3 mph 23.0 mph N/A   Clear
4:53 PM 41.0 °F 33.5 °F 16.0 °F 36% 30.63 in 10.0 mi NNW 13.8 mph - N/A   Clear
5:53 PM 37.0 °F 29.8 °F 17.1 °F 44% 30.65 in 10.0 mi NNW 10.4 mph - N/A   Scattered Clouds
6:53 PM 36.0 °F 28.5 °F 18.0 °F 48% 30.67 in 10.0 mi NNW 10.4 mph - N/A   Clear
7:53 PM 36.0 °F 28.0 °F 19.0 °F 50% 30.69 in 10.0 mi NNW 11.5 mph - N/A   Clear
8:53 PM 35.1 °F 29.3 °F 19.9 °F 54% 30.71 in 10.0 mi NNW 6.9 mph - N/A   Clear
9:53 PM 33.1 °F 27.7 °F 19.9 °F 59% 30.72 in 10.0 mi NW 5.8 mph - N/A   Clear
10:53 PM 30.9 °F 25.2 °F 19.0 °F 61% 30.73 in 10.0 mi NW 5.8 mph - N/A   Clear
11:53 PM 25.0 °F 18.1 °F 18.0 °F 75% 30.74 in 10.0 mi NNW 5.8 mph - N/A   Clear